Regional Weather Roundup
Issued by NWS Upton, NY

Current Version | Previous Version | Graphics & Text | Print | Product List | Glossary Off
Versions: 1 2 3 4 5 6 7 8 9 10 11 12 13 14 15 16 17 18 19 20 21 22 23 24 25 26 27

000
ASUS41 KOKX 221908
RWROKX

REGIONAL WEATHER ROUNDUP
NATIONAL WEATHER SERVICE NEW YORK NY
200 PM EST WED FEB 22 2017

NOTE: "FAIR" INDICATES FEW OR NO CLOUDS BELOW 12,000 FEET WITH NO
SIGNIFICANT WEATHER AND/OR OBSTRUCTIONS TO VISIBILITY.

NYZ071-072-176-178-NJZ106-104-222000-
NEW YORK CITY METRO AREA

CITY           SKY/WX    TMP DP  RH WIND       PRES   REMARKS
Central Park   PTSUNNY   55  37  50 CALM      29.94F
Wall St Helipt NOT AVBL
LaGuardia APRT CLOUDY    55  38  52 S3        29.91F
Kennedy INTL   CLOUDY    50  40  68 S5        29.94F
Breezy Point     N/A     45 N/A N/A SE5         N/A
Newark/Liberty CLOUDY    54  38  54 VRB3      29.92F
Teterboro      MOSUNNY   54  38  54 SW5       29.91F
$$

NYZ177-179-078>081-222000-
LONG ISLAND NEW YORK

CITY           SKY/WX    TMP DP  RH WIND       PRES   REMARKS
Jones Beach      N/A     45 N/A N/A S6          N/A
Matinecock PT    N/A     50 N/A N/A CALM        N/A
Farmingdale    CLOUDY    51  40  65 S7        29.93F
MacArthur/ISP  CLOUDY    50  41  71 S9        29.93F
Shirley        CLOUDY    48  41  76 S9        29.94F
Westhampton    CLOUDY    48  41  76 VRB5      29.95F
Southampton    NOT AVBL
Bridgehampton  NOT AVBL
East Hampton   CLOUDY    47  39  75 SW9       29.94F
Montauk          N/A     46  38  73 NW5       29.96F
$$

NYZ052-065-067-222000-
HUDSON VALLEY

CITY           SKY/WX    TMP DP  RH WIND       PRES   REMARKS
White Plains   CLOUDY    49  37  63 SW5       29.91F
Newburgh       PTSUNNY   48  41  76 VRB6      29.94S
Montgomery     CLOUDY    48  39  71 SE5       29.90F
Poughkeepsie   CLOUDY    48  37  65 SW6       29.92F
Albany         MOSUNNY   55  34  45 S7        29.90F
$$

NJZ001-105-106-008-010-013-015-019>022-104-222000-
NEW JERSEY

CITY           SKY/WX    TMP DP  RH WIND       PRES   REMARKS
Newark/Liberty CLOUDY    54  38  54 VRB3      29.92F
Teterboro      MOSUNNY   54  38  54 SW5       29.91F
Caldwell       PTSUNNY   53  37  54 S5        29.91F
Somerville     MOSUNNY   55  38  52 VRB3      29.90F
Linden         NOT AVBL
Sussex         CLOUDY    54  40  59 S5        29.90F
Andover          N/A     54  38  54 VRB3      29.90F
Trenton        PTSUNNY   55  42  61 S6        29.92F
Millville      CLOUDY    56  49  77 VRB6      29.94F
Atlantic City  CLOUDY    61  48  62 S6        29.94F
Wrightstown    MOSUNNY   58  44  60 W3        29.90F
Toms River     CLOUDY    61  46  57 SW9       29.93F
Belmar         CLOUDY    53  44  71 SW7       29.94F
$$

PAZ047>061-062-071-222000-
EASTERN PENNSYLVANIA

CITY           SKY/WX    TMP DP  RH WIND       PRES   REMARKS
Philadelphia   CLOUDY    57  42  57 S5        29.94F
Allentown      MOSUNNY   57  38  48 CALM      29.92F
Scranton       CLOUDY    54  40  59 VRB3      29.89F
$$

CTZ002-004>006-009-010-012-RIZ004-006-007-MAZ004-011-015-222000-
SOUTHERN NEW ENGLAND
 IN CT

CITY           SKY/WX    TMP DP  RH WIND       PRES   REMARKS
Bradley INTL   PTSUNNY   52  35  52 SE6       29.91F
Hartford       MOSUNNY   53  36  52 S8        29.91F
Danbury        CLOUDY    47  37  68 CALM      29.93F
Wtrbury/Oxford PTSUNNY   50  34  53 CALM      29.93F
Bridgeport     CLOUDY    47  39  74 SW5       29.93F
Meriden        MOSUNNY   52  36  54 S6        29.92F
New Haven      CLOUDY    45  37  73 SW9       29.93F
Chester          N/A     50  36  57 VRB5      29.92F
Groton         PTSUNNY   49  37  63 W9        29.92F
Wilimantic     CLOUDY    57  36  45 S5        29.91F

 IN RI

CITY           SKY/WX    TMP DP  RH WIND       PRES   REMARKS
Providence     PTSUNNY   56  36  47 S6        29.92F
Block Island   MOSUNNY   48  40  73 W10       29.94F
Westerly       MOSUNNY   50  35  56 SW8       29.93F
 IN MA

CITY           SKY/WX    TMP DP  RH WIND       PRES   REMARKS
Boston         PTSUNNY   54  38  54 SE7       29.90F
Worcester      SUNNY     52  35  52 SW10      29.88F
Westfield      CLOUDY    53  36  52 S7        29.89F
Provincetown   MOSUNNY   51  38  60 SW7       29.93F
Nantucket      MOSUNNY   46  40  79 SW14      29.94F
$$

ANZ330-335-338-340-345-350-353-355-222000-
COASTAL MARINE OBSERVATIONS


STATION/POSITION TIME  SKY/WX   TEMP    WIND        PRES    VSBY  WAVE
                                AIR SEA DIR/SP/G                  HT/PER
                 (UTC)          (F)     (DEG/KT/KT) (MB)    (MI)  (FT/S)
NY HARB ENTRANCE 1850            44 43  170/  8/  8 1013.6          2/ 8
20 S FIRE ISLAND 1850            45 43  190/  6/  8 1014.3          2/ 9
GREAT SOUTH BAY  NOT AVBL
23 SSW MONTAUK P 1750            45 45              1015.6          3/12
15 E BARNEGAT LI 1830               42                N/A           3/ 8
HUDSON CANYON    1850               50              1014.8          3/ 9
KINGS POINT      1836               40                N/A
EXECUTION ROCKS  NOT AVBL
CENTRAL LI SOUND 1830            41     260/  4/  6   N/A           0
EASTERN LI SOUND NOT AVBL
ROBBINS REEF     1842            48     150/  5/  6 1013.7
$$


>>>>>>>>>>>>>>>>>>>>>>>>>>>> KEY <<<<<<<<<<<<<<<<<<<<<<<<<<<
>                                                          <
>     SKY/WX - Sky Condition/Present Weather               <
>     TMP    - Temperature in Fahrenheit                   <
>     DP     - Dew Point in Fahrenheit                     <
>     RH     - Relative Humidity in Percent                <
>     WIND   - Direction (from) and Speed in MPH           <
>     PRES   - Mean Sea Level Pressure (inches of Hg)      <
>     WCI    - Wind Chill Index                            <
>     VSB    - VISIBILITY IN MILES                         <
>     HX     - HEAT INDEX                                  <
>     TC     - TEMPERATURE IN CELSIUS                      <
>     VRB    - VARIABLE WIND DIRECTION                     <
>                                                          <
>>>>>>>>>>>>>>>>>>>>>>>>>>>> KEY <<<<<<<<<<<<<<<<<<<<<<<<<<<




USA.gov is the U.S. government's official web portal to all federal, state and local government web resources and services.